Simultaneous Nadir Overpasses (SNOs) Predictions

Prediction of SNOs between METOP-A and NOAA-19 Satellite Orbit:

Table of predicted SNOs for the next 14.0 days since TLE Epoch: 8/27/2016
Index Date (METOP-A) Time (METOP-A) Lat,Lon (METOP-A) SZA (METOP-A ) Date (NOAA-19) Time (NOAA-19) Lat,Lon (NOAA-19) SZA (NOAA-19 ) Distance(km) Time Diff (sec)
1 09/03/2016 01:57:12 -76.64, -27.27 110.86 09/03/2016 01:56:01 -76.64, -28.95 110.87 43.07 71
2 09/03/2016 02:47:57 76.41, 139.20 68.92 09/03/2016 02:46:52 76.42, 139.21 68.92 0.71 65
3 09/03/2016 03:38:39 -76.39, -53.52 111.09 09/03/2016 03:37:57 -76.38, -53.43 111.10 2.79 42
4 09/03/2016 04:29:19 76.39, 113.79 68.92 09/03/2016 04:28:53 76.37, 113.86 68.91 2.58 26
5 09/03/2016 05:20:01 -76.37, -78.94 111.09 09/03/2016 05:19:59 -76.38, -78.95 111.08 1.05 2
6 09/03/2016 06:10:41 76.37, 88.37 68.93 09/03/2016 06:10:55 76.38, 88.35 68.93 1.06 14
7 09/03/2016 07:01:23 -76.35,-104.35 111.08 09/03/2016 07:02:00 -76.34,-104.29 111.09 2.11 37
8 09/03/2016 07:52:03 76.35, 62.96 68.93 09/03/2016 07:52:56 76.33, 63.01 68.92 1.93 53
9 09/03/2016 08:42:47 -76.24,-130.09 111.17 09/03/2016 08:44:00 -76.26,-129.47 111.15 16.46 73




NCC Satellite Simultaneous Nadir Overpasses (SNOs) Prediction Service
